Location: Augustenthal
(51.7167°N, 10.2833°E)
Time: 08:30:32
(UTC+00:00)

Cosmos 1934 Rocket - Pass Details

Date: 18 May 2021
Orbit: 937 x 1000 km, 83.0° (Epoch: 20 June)

Event Time Altitude Azimuth Distance (km) Brightness Sun altitude
Rises 22:43:35 0° 349° (N) 3,644 8.7 -18.2°
Reaches altitude 10° 22:46:06 10° 349° (N) 2,686 7.6 -18.2°
Maximum altitude 22:52:14 87° 262° (W) 951 3.9 -18.3°
Enters shadow 22:55:21 31° 175° (S) 1,590 4.5 -18.4°
